[[{"header":{"parameterUnit":"m.s-1","parameterCategory":1,"la1":30.2991,"la2":30.254,"lo1":-89.0895,"lo2":-89.0444,"dy":0.0017,"dx":0.0017,"nx":28,"ny":28,"refTime":"2024-03-27T21:00:00:Z","depth":0,"parameterNumber":2,"parameterNumberName":"U-component_of_WINDS"},"data":[0,0,0,0,0,0,0,0,0,0,0,0,0,0,0,0,0,0,0,0,0,0,0,0,0,0,0,0,0,0,0,0,0,0,0,0,0,0,0,0,0,0,0,0,0,0,0,0,0,0,0,0,0,0,0,0,0,0,0.0569,0.0568,0,0.0524,0.0524,0.0523,0.0529,0.053,0.0531,0.0531,0.0482,0.048,0.0479,0,0,0,0,0,0,0,0,0,0,0,0,0,0.0656,0.0655,0.0569,0.0568,0.0568,0.0524,0.0524,0.0523,0.0529,0.053,0.0531,0.0532,0.0483,0.0481,0.0478,0,0,0,0,0,0,0,0,0,0,0,0,0,0.0615,0.0654,0.0569,0.0566,0.0565,0.0524,0.0524,0.0523,0.0529,0.053,0.0531,0.0532,0.0484,0.0481,0.0478,0.0437,0,0,0.0469,0.0468,0,0,0,0,0,0,0,0,0.0618,0.0612,0.0567,0.0566,0.0565,0.0534,0.0537,0.0494,0.0529,0.0542,0.0531,0.0533,0.0498,0.0494,0.0483,0.0435,0.0433,0.0469,0.0467,0.0465,0.0465,0,0,0,0,0,0,0,0.0621,0.0614,0.0551,0.0566,0.0565,0.0565,0.0561,0.0528,0.0514,0.0541,0.0542,0.0536,0.0498,0.0486,0.0482,0.0432,0.0469,0.0466,0.0464,0.0463,0.0347,0.0346,0,0,0,0,0,0,0.0625,0.0616,0.0552,0.055,0.0595,0.0563,0.0558,0.0542,0.0515,0.0512,0.0536,0.0537,0.0491,0.0486,0.048,0.043,0.0465,0.0463,0.0461,0.0348,0.0347,0.0345,0,0,0,0,0,0,0.0627,0.0619,0.0554,0.0583,0.0575,0.056,0.0543,0.0541,0.0529,0.0511,0.0508,0.0526,0.0491,0.0485,0.0448,0.0428,0.0461,0.0459,0.035,0.0348,0.0346,0.0329,0,0,0,0,0,0,0.0629,0.062,0.0604,0.0583,0.0573,0.0523,0.0542,0.0539,0.0524,0.0526,0.0501,0.0498,0.0492,0.0452,0.0445,0.0425,0.0456,0.0352,0.0349,0.0347,0.0332,0.0327,0.0323,0,0,0,0,0,0.0632,0.0601,0.0604,0.0596,0.0554,0.0522,0.0517,0.0511,0.0523,0.0507,0.0495,0.0499,0.0432,0.0449,0.044,0.0419,0.0353,0.035,0.0347,0.0333,0.0328,0.0324,0,0,0,0,0,0,0.0619,0.0598,0.0601,0.0562,0.0544,0.0523,0.0503,0.0506,0.0483,0.0485,0.0478,0.0472,0.0435,0.0424,0.0442,0.0378,0.0394,0.0389,0.0386,0.0381,0.0377,0.038,0.0454,0,0,0,0,0,0.0612,0.0589,0.0571,0.0538,0.0529,0.0518,0.0504,0.0501,0.0482,0.0474,0.0459,0.0439,0.0414,0.0397,0.0373,0.0331,0.0325,0.0312,0.0308,0.0305,0.03,0.0276,0.027,0.0336,0.0336,0.0336,0,0,0.0597,0.0582,0.0568,0.0535,0.0521,0.0496,0.0511,0.0484,0.0465,0.0469,0.0434,0.0422,0.04,0.036,0.0342,0.0349,0.0281,0.0301,0.0298,0.0296,0.0273,0.0266,0.0261,0.0334,0.0334,0.0335,0,0,0.0555,0.0543,0.0514,0.05,0.0478,0.0471,0.0464,0.0443,0.0436,0.0401,0.0403,0.038,0.0337,0.0321,0.0307,0.026,0.0262,0.0252,0.023,0.0207,0.0202,0.0197,0.0179,0.0173,0.0248,0.0248,0.0248,0,0.0538,0.0502,0.0498,0.0471,0.0456,0.0461,0.0431,0.0417,0.0388,0.0377,0.0387,0.0332,0.0317,0.0273,0.0262,0.0251,0.0242,0.0254,0.0203,0.0198,0.0194,0.0177,0.017,0.0247,0.0247,0.0247,0.0247,0,0.0481,0.0456,0.0435,0.0408,0.0392,0.0363,0.0354,0.0338,0.0337,0.0328,0.0292,0.0274,0.0246,0.0236,0.0235,0.0192,0.0197,0.0205,0.0221,0.0186,0.017,0.0164,0.0245,0.0246,0.0246,0.0246,0,0,0.0429,0.0402,0.0395,0.0382,0.036,0.0339,0.0311,0.0285,0.027,0.025,0.0225,0.0189,0.0196,0.018,0.0177,0.0157,0.012,0.0167,0.0166,0.0158,0.0071,0.0064,0.0057,0.0122,0.0121,0.012,0.0073,0,0.0385,0.0336,0.0332,0.0287,0.0263,0.0267,0.0242,0.0225,0.0216,0.0194,0.0184,0.0158,0.017,0.016,0.0141,0.0129,0.0102,0.0132,0.0098,0.0096,0.0102,0.0049,0.0042,-0.0002,0.0066,0.0065,0.0065,0,0.0326,0.0306,0.0259,0.024,0.0229,0.0207,0.0183,0.0162,0.0142,0.0137,0.012,0.012,0.009,0.0108,0.0065,0.0086,0.0072,0.0064,0.0062,0.0057,0.0077,0.0041,-0.0016,-0.0023,0.0055,0.0056,0.0056,0,0.0292,0.0253,0.0219,0.0209,0.0186,0.017,0.016,0.0142,0.0126,0.0105,0.0094,0.0069,0.0055,0.0035,0.0028,0.0042,-0.0014,0.0003,-0.002,-0.002,-0.0034,-0.0033,-0.0096,-0.0041,-0.0041,-0.004,-0.004,0,0.0242,0.0212,0.0204,0.0183,0.015,0.0146,0.0113,0.0103,0.0087,0.0064,0.0066,0.0044,0.0036,0.0013,0.0007,-0.0028,-0.0034,-0.004,-0.0041,-0.0041,-0.004,-0.0051,-0.0049,-0.0042,-0.0042,-0.0041,-0.0041,0,0.0197,0.019,0.0154,0.0136,0.013,0.0107,0.009,0.007,0.0063,0.0033,0.0026,0.0013,-0.0014,-0.0023,-0.0057,-0.0061,-0.0102,-0.01,-0.0095,-0.0095,-0.0119,-0.0117,-0.0193,-0.0203,-0.0139,-0.014,-0.0141,0,0.0165,0.0143,0.0122,0.0107,0.0097,0.0072,0.0057,0.0052,0.0036,0.0012,-0.0006,-0.0032,-0.0054,-0.0099,-0.0112,-0.0137,-0.0137,-0.0162,-0.0141,-0.014,-0.0139,-0.0138,-0.0141,-0.0166,-0.0167,-0.0167,-0.0168,0,0.0108,0.0106,0.0084,0.0061,0.0043,0.0024,0.0006,-0.0006,-0.0014,-0.0032,-0.006,-0.0077,-0.011,-0.0138,-0.0164,-0.0176,-0.0174,-0.0174,-0.0181,-0.0181,-0.0178,-0.0181,-0.0107,-0.0172,-0.0172,-0.0172,-0.0171,-0.0171,0.0068,0.0048,0.0031,0.0006,-0.0008,-0.0024,-0.0044,-0.0054,-0.0077,-0.0104,-0.0105,-0.0135,-0.0155,-0.0189,-0.0202,-0.0226,-0.022,-0.023,-0.0232,-0.0235,-0.0238,-0.0173,-0.0231,-0.0231,-0.0231,-0.0231,-0.0231,0,0.001,-0.0,-0.0023,-0.0048,-0.0067,-0.0061,-0.0081,-0.0098,-0.0124,-0.0141,-0.0163,-0.0195,-0.0221,-0.0235,-0.0261,-0.0278,-0.0278,-0.0285,-0.0285,-0.0288,-0.0242,-0.0233,-0.0285,-0.0285,-0.0285,-0.0285,-0.0285,-0.0285,-0.0022,-0.0056,-0.006,-0.01,-0.0111,-0.014,-0.0151,-0.0167,-0.0181,-0.0216,-0.0238,-0.0246,-0.0263,-0.029,-0.0314,-0.0318,-0.0328,-0.0336,-0.0339,-0.0296,-0.0291,-0.0286,-0.0278,-0.0338,-0.0338,-0.0384,-0.0384,-0.0385]},{"header":{"parameterUnit":"m.s-1","parameterCategory":1,"la1":30.2991,"la2":30.254,"lo1":-89.0895,"lo2":-89.0444,"dy":0.0017,"dx":0.0017,"nx":28,"ny":28,"refTime":"2024-03-27T21:00:00:Z","depth":0,"parameterNumber":3,"parameterNumberName":"V-component_of_WINDS"},"data":[0,0,0,0,0,0,0,0,0,0,0,0,0,0,0,0,0,0,0,0,0,0,0,0,0,0,0,0,0,0,0,0,0,0,0,0,0,0,0,0,0,0,0,0,0,0,0,0,0,0,0,0,0,0,0,0,0,0,-2.882,-2.8821,0,-2.8903,-2.8904,-2.8904,-2.8868,-2.8866,-2.8864,-2.8862,-2.8944,-2.8948,-2.8952,0,0,0,0,0,0,0,0,0,0,0,0,0,-2.8631,-2.8634,-2.882,-2.8821,-2.8822,-2.8902,-2.8904,-2.8905,-2.8868,-2.8865,-2.8863,-2.8861,-2.8942,-2.8947,-2.8952,0,0,0,0,0,0,0,0,0,0,0,0,0,-2.8713,-2.8635,-2.882,-2.8814,-2.8814,-2.8902,-2.8904,-2.8905,-2.8868,-2.8865,-2.8862,-2.886,-2.8941,-2.8947,-2.8953,-2.9051,0,0,-2.8971,-2.8974,0,0,0,0,0,0,0,0,-2.8708,-2.872,-2.8814,-2.8814,-2.8815,-2.8872,-2.8867,-2.8954,-2.8869,-2.8848,-2.8862,-2.8858,-2.8922,-2.893,-2.8952,-2.9055,-2.9059,-2.8972,-2.8976,-2.8978,-2.898,0,0,0,0,0,0,0,-2.8703,-2.8716,-2.8853,-2.8815,-2.8816,-2.8806,-2.8815,-2.8883,-2.8901,-2.8849,-2.8847,-2.8857,-2.8922,-2.8946,-2.8953,-2.906,-2.8972,-2.8977,-2.8981,-2.8983,-2.925,-2.9253,0,0,0,0,0,0,-2.8697,-2.8712,-2.885,-2.8855,-2.8753,-2.8812,-2.8822,-2.8857,-2.89,-2.8904,-2.886,-2.8855,-2.8937,-2.8946,-2.8956,-2.9075,-2.8978,-2.8984,-2.8987,-2.9247,-2.9251,-2.9254,0,0,0,0,0,0,-2.8693,-2.871,-2.8847,-2.8783,-2.88,-2.8819,-2.8858,-2.886,-2.8884,-2.8908,-2.8911,-2.8881,-2.8935,-2.8947,-2.9028,-2.9078,-2.8987,-2.8992,-2.9243,-2.9248,-2.9253,-2.9314,0,0,0,0,0,0,-2.8688,-2.8709,-2.8747,-2.8784,-2.8803,-2.8918,-2.8861,-2.8864,-2.8895,-2.8889,-2.8929,-2.8932,-2.8933,-2.902,-2.9035,-2.9084,-2.8997,-2.9238,-2.9245,-2.9251,-2.9308,-2.9321,-2.9332,0,0,0,0,0,-2.8681,-2.876,-2.8749,-2.8766,-2.8851,-2.8921,-2.8932,-2.8933,-2.8899,-2.8937,-2.8953,-2.8931,-2.907,-2.9028,-2.9045,-2.9097,-2.9235,-2.9243,-2.925,-2.9303,-2.9318,-2.9332,0,0,0,0,0,0,-2.8726,-2.8765,-2.8753,-2.8846,-2.8881,-2.8915,-2.8963,-2.8949,-2.8994,-2.8987,-2.8985,-2.8994,-2.9078,-2.9095,-2.9048,-2.9196,-2.9147,-2.9159,-2.9181,-2.9197,-2.9208,-2.9203,-2.9002,0,0,0,0,0,-2.8747,-2.8802,-2.8832,-2.8911,-2.893,-2.8944,-2.8974,-2.8972,-2.9007,-2.9022,-2.9043,-2.9079,-2.913,-2.9164,-2.9213,-2.931,-2.9319,-2.9355,-2.9367,-2.9376,-2.9386,-2.9441,-2.9457,-2.928,-2.928,-2.9279,0,0,-2.8791,-2.8819,-2.8853,-2.8921,-2.8948,-2.9004,-2.8956,-2.9017,-2.9059,-2.9031,-2.9109,-2.9127,-2.9166,-2.9256,-2.9296,-2.9273,-2.9437,-2.9386,-2.9394,-2.9399,-2.945,-2.9467,-2.9482,-2.9285,-2.9284,-2.9283,0,0,-2.8899,-2.8925,-2.8995,-2.9023,-2.9065,-2.9074,-2.9091,-2.9128,-2.9139,-2.9218,-2.9198,-2.9247,-2.9336,-2.9365,-2.9392,-2.9513,-2.9495,-2.9529,-2.9592,-2.9644,-2.9658,-2.9671,-2.9715,-2.9731,-2.9538,-2.9539,-2.9539,0,-2.8948,-2.9033,-2.9032,-2.9096,-2.9127,-2.9105,-2.9176,-2.9203,-2.9258,-2.928,-2.9253,-2.9365,-2.939,-2.9487,-2.9517,-2.9539,-2.9558,-2.9524,-2.9657,-2.9669,-2.9681,-2.9723,-2.9739,-2.9543,-2.9542,-2.9542,-2.9541,0,-2.9091,-2.915,-2.9201,-2.9257,-2.9293,-2.936,-2.937,-2.9407,-2.9402,-2.9413,-2.9495,-2.9524,-2.9579,-2.9601,-2.9596,-2.9698,-2.9683,-2.9656,-2.9608,-2.9701,-2.9741,-2.9757,-2.9548,-2.9547,-2.9546,-2.9545,0,0,-2.923,-2.9285,-2.9304,-2.933,-2.9375,-2.942,-2.9486,-2.9541,-2.9573,-2.9612,-2.9668,-2.9744,-2.9721,-2.9751,-2.9749,-2.9795,-2.9891,-2.9763,-2.9764,-2.9787,-3.0007,-3.0027,-3.0046,-2.9879,-2.9882,-2.9885,-3.0004,0,-2.9342,-2.9459,-2.9461,-2.9568,-2.9623,-2.9604,-2.9661,-2.9695,-2.9709,-2.9757,-2.9771,-2.9826,-2.979,-2.9808,-2.9853,-2.987,-2.9935,-2.9861,-2.9931,-2.9934,-2.9923,-3.0066,-3.0088,-3.0199,-3.0019,-3.0022,-3.0024,0,-2.9489,-2.9534,-2.9647,-2.9686,-2.9709,-2.9761,-2.9812,-2.9859,-2.9897,-2.9903,-2.9938,-2.9929,-2.9997,-2.9946,-3.0039,-2.9989,-3.0018,-3.003,-3.0035,-3.0042,-2.9985,-3.0078,-3.0234,-3.0251,-3.0048,-3.0046,-3.0044,0,-2.958,-2.9669,-2.9748,-2.9771,-2.9817,-2.9855,-2.9876,-2.9911,-2.9945,-2.9989,-3.0011,-3.0062,-3.009,-3.013,-3.0136,-3.0098,-3.023,-3.018,-3.0238,-3.0238,-3.0267,-3.0265,-3.0431,-3.0284,-3.0284,-3.0284,-3.0283,0,-2.9705,-2.9776,-2.979,-2.9839,-2.9918,-2.9919,-2.9997,-3.0015,-3.0047,-3.0099,-3.0084,-3.0134,-3.0138,-3.0188,-3.0193,-3.027,-3.0283,-3.029,-3.029,-3.0292,-3.0291,-3.0311,-3.0304,-3.0288,-3.0287,-3.0286,-3.0285,0,-2.982,-2.9833,-2.9919,-2.9957,-2.9968,-3.0024,-3.0056,-3.0103,-3.0115,-3.0182,-3.0197,-3.0216,-3.0275,-3.0285,-3.0353,-3.0357,-3.045,-3.0442,-3.0437,-3.0436,-3.0494,-3.0489,-3.0679,-3.0705,-3.0541,-3.0542,-3.0544,0,-2.99,-2.9954,-2.9998,-3.0033,-3.0056,-3.0112,-3.0146,-3.015,-3.0187,-3.0235,-3.0277,-3.0334,-3.0381,-3.0476,-3.0496,-3.0549,-3.0542,-3.0605,-3.055,-3.055,-3.0545,-3.0542,-3.0548,-3.0616,-3.0618,-3.0619,-3.062,0,-3.0041,-3.0045,-3.0095,-3.0149,-3.0191,-3.0233,-3.0272,-3.0301,-3.0311,-3.0352,-3.0413,-3.045,-3.0521,-3.0579,-3.0632,-3.0653,-3.0639,-3.0638,-3.0654,-3.0657,-3.0652,-3.0657,-3.0467,-3.0633,-3.0632,-3.0631,-3.063,-3.063,-3.0141,-3.0189,-3.0228,-3.0285,-3.0316,-3.0354,-3.04,-3.0419,-3.047,-3.0529,-3.0528,-3.0595,-3.0633,-3.0703,-3.0728,-3.0781,-3.076,-3.0784,-3.079,-3.0796,-3.0802,-3.0643,-3.079,-3.079,-3.0789,-3.0789,-3.0789,0,-3.0282,-3.0307,-3.036,-3.0417,-3.0462,-3.0445,-3.0489,-3.0528,-3.0587,-3.0624,-3.0671,-3.0742,-3.0798,-3.0823,-3.0878,-3.0915,-3.0911,-3.093,-3.0928,-3.0933,-3.0817,-3.0797,-3.0933,-3.0933,-3.0933,-3.0933,-3.0933,-3.0933,-3.0361,-3.0441,-3.045,-3.0545,-3.0569,-3.0636,-3.0662,-3.0697,-3.0727,-3.0807,-3.0854,-3.087,-3.0903,-3.0961,-3.1012,-3.1017,-3.1039,-3.1062,-3.1065,-3.0956,-3.0941,-3.0927,-3.0909,-3.1066,-3.1066,-3.1177,-3.1178,-3.1179]}]]